Homestead, FL

6:00 PM EST on February 10, 2016 (GMT -0500)
Dade County-Homestead Regional

Weather History for KHST - February, 2013

Change the Weather History Date:

Saturday, February 23, 2013

  Actual Average (KMIA) Record (KMIA)
Temperature  
Mean Temperature 76 °F 71 °F  
Max Temperature 82 °F 79 °F 89 °F (2008)
Min Temperature 69 °F 63 °F 39 °F (1978)
Degree Days  
Heating Degree Days 0 1  
Month to date heating degree days 23  
Since 1 July heating degree days 113  
Cooling Degree Days 10 7  
Month to date cooling degree days 136  
Year to date cooling degree days 287  
Growing Degree Days 26 (Base 50)    
Moisture  
Dew Point 71 °F    
Average Humidity 87    
Maximum Humidity 100    
Minimum Humidity 70    
Precipitation  
Precipitation 0.00 in 0.08 in 1.96 in (2002)
Month to date precipitation 1.83  
Year to date precipitation 3.45  
Snow  
Snow 0.00 in - - ()
Month to date snowfall  
Since 1 July snowfall  
Snow Depth -    
Sea Level Pressure  
Sea Level Pressure 30.00 in    
Wind  
Wind Speed 8 mph (SSE)    
Max Wind Speed 17 mph    
Max Gust Speed 22 mph    
Visibility 8 miles    
Events      
T = Trace of Precipitation, MM = Missing Value Source: NWS Daily Summary

Daily Weather History Graph

Daily Weather History Graph

Search for Another Location

Airport or City:

Trip Planner

Search our weather history database for the weather conditions in past years. The results will help you decide how hot, cold, wet, or windy it might be!

Date:

Astronomy

Feb. 23, 2013 Rise Set
Actual Time 6:49 AM EST 6:20 PM EST
Civil Twilight 6:26 AM EST 6:43 PM EST
Nautical Twilight 5:59 AM EST 7:10 PM EST
Astronomical Twilight 5:33 AM EST 7:36 PM EST
Moon 4:34 PM EST (2/23) 5:03 AM EST (2/23)
Length of Visible Light 12h 16m
Length of Day
11h 30m
Waxing Gibbous, 95% of the Moon is Illuminated
Feb 23
Waxing Gibbous
Feb 25
Full
Mar 4
Last Quarter
Mar 11
New
Mar 19
First Quarter

Hourly Weather History & Observations

Time (EST) Temp. Heat Index Dew Point Humidity Pressure Visibility Wind Dir Wind Speed Gust Speed Precip Events Conditions
12:58 AM 73.4 °F - 69.8 °F 88% 30.06 in 10.0 mi SE 8.1 mph - N/A   Clear
1:58 AM 73.4 °F - 69.8 °F 88% 30.04 in 10.0 mi SE 11.5 mph - N/A   Clear
2:58 AM 73.4 °F - 69.8 °F 88% 30.03 in 10.0 mi SE 8.1 mph - N/A   Clear
3:58 AM 73.4 °F - 69.8 °F 88% 30.01 in 10.0 mi SE 8.1 mph - N/A   Clear
4:58 AM 73.4 °F - 68.0 °F 83% 30.01 in 10.0 mi SE 9.2 mph - N/A   Clear
5:58 AM 71.6 °F - 68.0 °F 88% 30.00 in 10.0 mi SE 8.1 mph - N/A   Clear
6:58 AM 73.4 °F - 68.0 °F 83% 30.01 in 10.0 mi SE 6.9 mph - N/A   Clear
7:58 AM 75.2 °F - 69.8 °F 83% 30.03 in 10.0 mi SE 8.1 mph - N/A   Clear
8:58 AM 78.8 °F - 71.6 °F 78% 30.04 in 10.0 mi SSE 13.8 mph - N/A   Partly Cloudy
9:58 AM 78.8 °F - 69.8 °F 74% 30.05 in 10.0 mi SSE 15.0 mph 19.6 mph N/A   Clear
10:58 AM 80.6 °F 83.9 °F 69.8 °F 70% 30.05 in 10.0 mi SE 17.3 mph 21.9 mph N/A   Partly Cloudy
11:58 AM 80.6 °F 84.6 °F 71.6 °F 74% 30.04 in 10.0 mi SSE 10.4 mph 19.6 mph N/A   Partly Cloudy
12:58 PM 80.6 °F 84.6 °F 71.6 °F 74% 30.01 in 10.0 mi SE 12.7 mph - N/A   Partly Cloudy
1:58 PM 80.6 °F 84.6 °F 71.6 °F 74% 29.99 in 10.0 mi SSE 11.5 mph - N/A   Scattered Clouds
2:58 PM 82.4 °F 87.2 °F 71.6 °F 70% 29.97 in 10.0 mi South 11.5 mph 19.6 mph N/A   Partly Cloudy
3:58 PM 80.6 °F 84.6 °F 71.6 °F 74% 29.96 in 10.0 mi SSE 10.4 mph - N/A   Clear
4:58 PM 80.6 °F 84.6 °F 71.6 °F 74% 29.96 in 10.0 mi SSE 8.1 mph - N/A   Partly Cloudy
5:58 PM 77.0 °F - 71.6 °F 83% 29.97 in 10.0 mi SSE 10.4 mph - N/A   Clear
6:58 PM 75.2 °F - 71.6 °F 89% 29.97 in 10.0 mi South 8.1 mph - N/A   Clear
7:58 PM 73.4 °F - 71.6 °F 94% 29.98 in 10.0 mi South 4.6 mph - N/A   Clear
8:58 PM 71.6 °F - 69.8 °F 94% 29.99 in 10.0 mi South 4.6 mph - N/A   Clear
9:13 PM 71.6 °F - 71.6 °F 100% 29.99 in 10.0 mi SSE 2.3 mph - N/A   Clear
9:18 PM 71.6 °F - 71.6 °F 100% 29.99 in 9.0 mi South 2.3 mph - N/A   Clear
9:43 PM 69.8 °F - 69.8 °F 100% 29.99 in 2.5 mi SSW 3.5 mph - N/A   Clear
9:48 PM 71.6 °F - 69.8 °F 94% 29.99 in 3.0 mi South 2.3 mph - N/A   Clear
9:58 PM 71.6 °F - 71.6 °F 100% 30.00 in 4.0 mi South 2.3 mph - N/A   Clear
10:08 PM 71.6 °F - 71.6 °F 100% 29.99 in 2.5 mi South 2.3 mph - N/A   Clear
10:13 PM 71.6 °F - 69.8 °F 94% 29.99 in 1.8 mi SSW 2.3 mph - N/A   Clear
10:14 PM 71.6 °F - 69.8 °F 94% 29.99 in 6.0 mi SSW 2.3 mph - N/A   Scattered Clouds
10:38 PM 71.6 °F - 71.6 °F 100% 29.99 in 6.0 mi South 3.5 mph - N/A   Partly Cloudy
10:58 PM 71.6 °F - 69.8 °F 94% 30.00 in 6.0 mi South 3.5 mph - N/A   Scattered Clouds
11:46 PM 69.8 °F - 69.8 °F 100% 29.99 in 2.0 mi SSW 2.3 mph - N/A   Clear
11:58 PM 71.6 °F - 71.6 °F 100% 30.00 in 2.0 mi SSW 2.3 mph - N/A   Clear